#timestamp,LO_Frequency,Hit,StdDev 
1616472015.0,286047001.1,N
1616472015.9,286047001.1,N
1616472035.8,286046998.1,N
1616472055.6,286047001.6,N
1616472075.4,286047000.9,N
1616472095.3,286046999.9,N
1616472115.1,286047000.4,N
1616472135.9,286047002.0,N
1616472155.7,286047000.5,N
1616472175.5,286046998.2,N
1616472195.4,286047000.6,N
1616472215.2,286047001.3,N
1616472235.0,286047004.3,N
1616472236.0,286047004.3,N
1616472255.8,286047001.4,N
1616472275.6,286047002.3,N
1616472295.5,286047000.9,N
1616472315.3,286047000.5,N
1616472335.1,286047002.1,N
1616472355.9,286047003.7,N
1616472375.7,286046998.8,N
1616472395.5,286047001.2,N
1616472415.4,286047002.5,N
1616472435.2,286047002.6,N
1616472455.1,286047002.4,N
1616472456.0,286047002.4,N
1616472475.8,286047004.3,N
1616472495.6,286047011.9,Y
1616472515.5,286047000.0,P
1616472535.3,286047000.2,N
1616472555.1,286047001.4,N
1616472575.9,286047003.9,Y
1616472595.7,286047000.2,P
1616472615.6,286047000.1,N
1616472635.4,286047001.4,P
1616472655.2,286047004.3,Y
1616472675.1,286047004.1,P
1616472676.0,286047004.1,N
1616472695.8,286047003.6,N
1616472715.7,286047006.0,Y
1616472735.5,286046998.6,P
1616472755.3,286047000.5,N
1616472775.2,286047002.8,N
1616472795.0,286047002.1,N
1616472795.9,286047002.1,N
1616472815.7,286047004.6,N
1616472835.6,286047005.2,N
1616472855.4,286047003.1,N
1616472875.3,286047002.3,N
1616472895.1,286047002.8,N
1616472915.8,286047005.2,Y
1616472935.7,286047003.4,P
1616472955.5,286047002.6,P
1616472975.4,286047005.4,P
1616472995.2,286047006.1,Y
1616473015.0,286046998.6,P
1616473015.9,286046998.6,N
1616473035.8,286046999.2,N
1616473055.6,286046998.0,N
1616473075.4,286046997.7,N
1616473095.3,286046998.6,N
1616473115.1,286047000.3,N
1616473135.9,286046998.9,N
1616473155.7,286046999.3,N
1616473175.5,286046999.2,N
1616473195.4,286047001.0,N
1616473215.2,286047000.6,N
1616473235.0,286047000.7,N
1616473235.9,286047000.7,N
1616473255.8,286047002.7,N
1616473275.6,286046996.6,N
1616473295.5,286046996.5,N
1616473315.3,286046998.9,N
1616473335.1,286046998.9,N
1616473355.9,286046996.8,N
1616473375.7,286046996.3,N
1616473395.5,286046996.0,N
1616473415.4,286046997.3,N
1616473435.2,286046997.3,N
1616473455.1,286047000.7,N
1616473456.0,286047000.7,N
1616473475.8,286046998.8,N
1616473495.6,286047001.1,N
1616473515.5,286046998.9,N
1616473535.3,286046994.9,N
1616473555.1,286046998.6,N
1616473575.9,286047001.0,N
1616473595.7,286047000.3,N
1616473615.6,286047000.2,N
1616473635.4,286047001.7,N
1616473655.2,286047003.1,N
1616473675.1,286047002.0,N
1616473676.0,286047002.0,N
1616473695.8,286046998.3,N
1616473715.6,286047001.2,N
1616473735.5,286046998.5,N
1616473755.3,286046998.5,N
1616473775.2,286046997.5,N
1616473795.9,286046997.1,N
1616473815.7,286046996.6,N
1616473835.6,286046999.2,N
1616473855.4,286046999.3,N
1616473875.2,286046998.5,N
1616473895.1,286046999.2,N
1616473896.0,286046999.2,N
1616473915.8,286046995.3,N
1616473935.7,286046999.0,N
1616473955.5,286046997.1,N
1616473975.3,286047000.9,N
1616473995.2,286046997.9,N
1616474015.0,286046996.6,N
1616474015.9,286046996.6,N
1616474035.7,286046999.4,N
1616474055.6,286046995.9,N
1616474075.4,286046997.1,N
1616474095.3,286046995.2,N
1616474115.1,286046994.8,N
1616474116.0,286046994.8,N
1616474135.8,286046993.9,N
1616474155.7,286046991.7,Y
1616474175.5,286046994.0,P
1616474195.3,286046995.9,N
1616474215.2,286046994.3,P
1616474235.0,286046992.1,Y
1616474235.9,286046992.1,P
1616474255.8,286047000.7,N
1616474275.6,286047002.6,N
1616474295.4,286046996.8,N
1616474315.3,286046995.3,N
1616474335.1,286046997.3,N
1616474355.8,286046999.6,N
1616474375.7,286046997.1,N
1616474395.5,286046995.1,N
1616474415.4,286046994.9,N
1616474435.2,286046995.8,N
1616474455.0,286046997.8,N
1616474455.9,286046997.8,N
1616474475.8,286046994.2,N
1616474495.6,286046992.9,N
1616474515.4,286046990.2,Y
1616474535.3,286046996.1,P
1616474555.1,286046994.0,P
1616474575.9,286046993.8,P
1616474595.7,286046997.8,N
1616474615.5,286046998.8,N
1616474635.4,286047001.2,N
1616474655.2,286046996.2,N
1616474675.0,286046999.3,N
1616474675.9,286046999.3,N
1616474695.8,286046996.8,N
1616474715.6,286046996.3,N
1616474735.5,286046997.2,N
1616474755.3,286046999.1,N
1616474775.1,286046999.5,N
1616474795.9,286046997.4,N
1616474815.7,286046998.9,N
1616474835.5,286046996.0,N
1616474855.4,286046997.9,N
1616474875.2,286046996.1,N
1616474895.1,286046997.4,N
1616474896.0,286046997.4,N
1616474915.8,286047000.6,N
1616474935.6,286046999.0,N
1616474955.5,286046993.9,Y
1616474975.3,286046997.3,P
1616474995.1,286046996.6,P
1616475015.9,286046996.6,P
1616475035.7,286046998.7,Y
1616475055.6,286047004.2,P
1616475075.4,286046999.7,N
1616475095.2,286047001.5,N
1616475115.1,286046999.7,N
1616475116.0,286046999.7,N
1616475135.8,286047001.9,N
1616475155.6,286047004.1,N
1616475175.5,286047001.3,N
1616475195.3,286047001.6,N
1616475215.2,286047002.5,N
1616475235.9,286047000.4,N
1616475255.7,286047001.9,N
1616475275.6,286047002.0,N
1616475295.4,286046999.8,N
1616475315.2,286047000.4,N
1616475335.1,286046999.1,N
1616475336.0,286046999.1,N
1616475355.8,286047000.6,N
1616475375.6,286047002.4,N
1616475395.5,286047001.9,N
1616475415.3,286047001.6,N
1616475435.2,286047002.9,N
1616475455.9,286047008.7,Y
1616475475.7,286047004.2,P
1616475495.6,286047004.3,N
1616475515.4,286047001.3,N
1616475535.2,286047004.4,N
1616475555.1,286047002.2,N
1616475556.0,286047002.2,N
1616475575.8,286047003.8,N
1616475595.7,286047002.0,N
